Sisseton, SD

8:10 AM CDT on August 23, 2017 (GMT -0500)
Sisseton

Weather History for K8D3 - January, 2013

Change the Weather History Date:

Friday, January 11, 2013

  Actual Average Record
Temperature  
Mean Temperature 24 °F 13 °F  
Max Temperature 34 °F 23 °F 53 °F (1958)
Min Temperature 13 °F 3 °F -31 °F (1977)
Degree Days  
Heating Degree Days 41 52  
Month to date heating degree days 468 572  
Since 1 July heating degree days 3843 3911  
Cooling Degree Days 0 0  
Month to date cooling degree days 0 0  
Year to date cooling degree days 0 0  
Moisture  
Dew Point 26 °F    
Average Humidity 92    
Maximum Humidity 100    
Minimum Humidity 84    
Precipitation  
Precipitation 0.02 in 0.01 in 0.54 in (1995)
Month to date precipitation 0.07 0.17  
Year to date precipitation 0.07 0.17  
Snow  
Snow 0.10 in - - ()
Month to date snowfall 0.3  
Since 1 July snowfall 9.3  
Snow Depth T in    
Sea Level Pressure  
Sea Level Pressure 29.49 in    
Wind  
Wind Speed 10 mph (SE)    
Max Wind Speed 39 mph    
Max Gust Speed 92 mph    
T = Trace of Precipitation, MM = Missing Value Source: NWS Daily Summary

Daily Weather History Graph

Daily Weather History Graph

Search for Another Location

Airport or City:

Trip Planner

Search our weather history database for the weather conditions in past years. The results will help you decide how hot, cold, wet, or windy it might be!

Date:

Astronomy

Jan. 11, 2013 Rise Set
Actual Time 8:06 AM CST 5:05 PM CST
Civil Twilight 7:33 AM CST 5:39 PM CST
Nautical Twilight 6:56 AM CST 6:16 PM CST
Astronomical Twilight 6:20 AM CST 6:52 PM CST
Moon 7:38 AM CST (1/11) 5:28 PM CST (1/11)
Length of Visible Light 10h 06m
Length of Day
8h 59m
Waning Crescent, 0% of the Moon is Illuminated
Jan 11
Waning Crescent
Jan 11
New
Jan 18
First Quarter
Jan 26
Full
Feb 3
Last Quarter

Hourly Weather History & Observations

Time (CST) Temp. Windchill Dew Point Humidity Pressure Visibility Wind Dir Wind Speed Gust Speed Precip Events Conditions
12:56 AM 33.1 °F 23.9 °F 32.0 °F 96% 29.55 in - SSE 12.7 mph - N/A   Unknown
1:56 AM 33.1 °F 25.5 °F 33.1 °F 100% 29.54 in - SSE 9.2 mph - N/A   Unknown
2:56 AM 33.1 °F 26.1 °F 33.1 °F 100% 29.54 in - SSE 8.1 mph - N/A   Unknown
3:56 AM 33.1 °F 25.5 °F 33.1 °F 100% 29.52 in - SSE 9.2 mph - N/A   Unknown
4:56 AM 33.1 °F 26.1 °F 33.1 °F 100% 29.49 in - SSE 8.1 mph - N/A   Unknown
5:56 AM 33.1 °F 26.9 °F 33.1 °F 100% 29.47 in - SSE 6.9 mph - N/A   Unknown
6:56 AM 33.1 °F 27.7 °F 33.1 °F 100% 29.49 in - South 5.8 mph - N/A   Unknown
7:56 AM 33.1 °F 28.7 °F 33.1 °F 100% 29.50 in - SSW 4.6 mph - N/A   Unknown
8:56 AM 33.1 °F 28.7 °F 33.1 °F 100% 29.48 in - SE 4.6 mph - N/A   Unknown
9:56 AM 33.1 °F 30.0 °F 33.1 °F 100% 29.48 in - SSE 3.5 mph - N/A   Unknown
10:56 AM 34.0 °F 31.0 °F 34.0 °F 100% 29.48 in - South 3.5 mph - N/A   Unknown
11:56 AM 34.0 °F - 34.0 °F 100% 29.45 in - Calm Calm - N/A   Unknown
12:56 PM 34.0 °F 28.8 °F 34.0 °F 100% 29.43 in - North 5.8 mph - 0.01 in   Unknown
1:56 PM 30.9 °F 19.1 °F 30.9 °F 100% 29.44 in - North 18.4 mph - N/A   Unknown
2:56 PM 28.9 °F 16.5 °F 28.9 °F 100% 29.43 in - NNE 18.4 mph - N/A   Unknown
3:56 PM 27.0 °F 14.3 °F 26.1 °F 96% 29.46 in - North 17.3 mph - N/A   Unknown
4:56 PM 25.0 °F 10.9 °F 24.1 °F 96% 29.47 in - North 19.6 mph - N/A   Unknown
5:56 PM 23.0 °F 7.6 °F 21.9 °F 96% 29.48 in - North 21.9 mph 27.6 mph N/A   Unknown
6:56 PM 19.9 °F -0.8 °F 18.0 °F 92% 29.49 in - NNW 39.1 mph 92.1 mph 0.01 in   Squalls
7:08 PM 19.4 °F - 17.6 °F 93% 29.42 in - Calm Calm - N/A   Unknown
7:20 PM 19.4 °F - 17.6 °F 93% 29.44 in - North - - N/A   Squalls
7:33 PM 19.4 °F - 17.6 °F 93% 29.44 in - North - - N/A   Unknown
7:56 PM 18.0 °F - 16.0 °F 92% 29.51 in - North - - N/A   Unknown
8:56 PM 16.0 °F - 12.9 °F 88% 29.54 in - North - - N/A   Unknown
9:56 PM 14.0 °F - 10.9 °F 88% 29.55 in - North - - N/A   Unknown
10:56 PM 12.9 °F - 9.0 °F 84% 29.53 in - North - - N/A   Unknown
11:56 PM 12.9 °F - 9.0 °F 84% 29.57 in - North - - N/A   Unknown